This is the latest recevied weather packets stored in our database for station/object DM4RS-1. If no packets are shown the sender has not sent any weather packets the latest 10 day(s).
| Time | Temp. | Humidity | Pressure | Rain* | Wind** | Luminosity | Snow |
|---|---|---|---|---|---|---|---|
| 1777712238 | 25.56° C | 35% | 1024.3 hPa | - | - | - | - |
| 1777711638 | 25° C | 37% | 1024.9 hPa | - | - | - | - |
| 1777710438 | 23.89° C | 38% | 1024.1 hPa | - | - | - | - |
| 1777709837 | 23.89° C | 39% | 1024.9 hPa | - | - | - | - |
| 1777709237 | 23.33° C | 39% | 1024.5 hPa | - | - | - | - |
| 1777708637 | 22.78° C | 43% | 1025 hPa | - | - | - | - |
| 1777708036 | 22.22° C | 44% | 1025.1 hPa | - | - | - | - |
| 1777707436 | 21.67° C | 45% | 1025 hPa | - | - | - | - |
| 1777706236 | 20.56° C | 50% | 1026.3 hPa | - | - | - | - |
| 1777705635 | 19.44° C | 53% | 1025.7 hPa | - | - | - | - |
| 1777705035 | 18.33° C | 57% | 1025.4 hPa | - | - | - | - |
| 1777704435 | 17.22° C | 58% | 1026 hPa | - | - | - | - |
| 1777703835 | 16.11° C | 61% | 1025.3 hPa | - | - | - | - |
| 1777703235 | 15.56° C | 63% | 1025.7 hPa | - | - | - | - |
| 1777702635 | 13.89° C | 65% | 1024.6 hPa | - | - | - | - |
| 1777702035 | 12.78° C | 67% | 1025.9 hPa | - | - | - | - |
| 1777701435 | 11.67° C | 69% | 1025.6 hPa | - | - | - | - |
| 1777700835 | 10.56° C | 70% | 1026.3 hPa | - | - | - | - |
| 1777700235 | 9.44° C | 68% | 1027.2 hPa | - | - | - | - |
| 1777699635 | 8.89° C | 67% | 1026.9 hPa | - | - | - | - |
| 1777699035 | 8.33° C | 67% | 1027.7 hPa | - | - | - | - |
| 1777698434 | 8.33° C | 65% | 1025.7 hPa | - | - | - | - |
| 1777697834 | 7.78° C | 66% | 1026.7 hPa | - | - | - | - |
| 1777697234 | 7.22° C | 68% | 1026.2 hPa | - | - | - | - |
| 1777696634 | 7.22° C | 67% | 1026.4 hPa | - | - | - | - |
* Rain since midnight (hover to see other rain measurements)
** Current wind speed in m/s (hover to see current wind gust speed)